User: anonymous   Login
Location: Unspecified
(0.0000°N, 0.0000°E)
Time: 22:18:05
(UTC+00:00)
Language:

USA 119 - Orbit

View from above orbital plane
View from above orbital plane
View from above satellite
View from above satellite

Ground track
Ground track

The orbit is defined by the following mean orbital elements,

1 23893U          26140.33054044 +.00000000 +00000-0 +10373-3 0 00001
2 23893  63.3194 264.9987 0849694  48.7559 318.3577 13.46168845    06
Epoch (UTC): 20 May 2026 07:55:58
Eccentricity: 0.0849694
inclination: 63.3194°
perigee height: 452 km
apogee height: 1721 km
right ascension of ascending node: 264.9987°
argument of perigee: 48.7559°
revolutions per day: 13.46168845
mean anomaly at epoch: 318.3577°

The dashed part of the orbit path shows where the satellite is in the earth's shadow,  

DLR